This demonstration page uses our WeatherBlox Daily Observations layout. Learn more.

39.29038, -76.61219

Hourly Observations for July 9, 2017

Temp ( °F °C ) Dew Point ( °F °C ) Humidity (%) Winds ( mph kmh ) Pressure ( in mb ) Visibility ( mi km ) Precip ( " mm )
12:54 am 00:54 undefined 76 24.4 60 15.6 58 58 undefined N/A 29.91 1013 N/A 0 0
1:54 am 01:54 undefined 75 23.9 61 16.1 62 62 undefined N/A 29.94 1014 N/A 0 0
2:54 am 02:54 undefined 74 23.3 61 16.1 64 64 undefined N/A 29.94 1014 N/A 0 0
3:54 am 03:54 undefined 74 23.3 60 15.6 62 62 undefined N/A 29.94 1014 N/A 0 0
4:54 am 04:54 undefined 73 22.8 60 15.6 64 64 undefined N/A 29.97 1015 N/A 0 0
5:54 am 05:54 undefined 71 21.7 60 15.6 68 68 undefined N/A 29.97 1015 N/A 0 0
6:54 am 06:54 undefined 73 22.8 59 15 62 62 undefined N/A 30 1016 N/A 0 0
7:54 am 07:54 undefined 74 23.3 58 14.4 57 57 undefined N/A 30.03 1017 N/A 0 0
8:54 am 08:54 undefined 76 24.4 57 13.9 52 52 undefined N/A 30.06 1018 N/A 0 0
9:54 am 09:54 undefined 78 25.6 51 10.6 39 39 undefined N/A 30.06 1018 N/A 0 0
10:54 am 10:54 undefined 79 26.1 51 10.6 38 38 undefined N/A 30.06 1018 N/A 0 0
11:54 am 11:54 undefined 81 27.2 48 8.9 32 32 undefined N/A 30.06 1018 N/A 0 0
12:54 pm 12:54 undefined 83 28.3 46 7.8 27 27 undefined N/A 30.06 1018 N/A 0 0
1:54 pm 13:54 undefined 83 28.3 48 8.9 30 30 undefined N/A 30.06 1018 N/A 0 0
2:54 pm 14:54 undefined 83 28.3 48 8.9 30 30 undefined N/A 30.06 1018 N/A 0 0
3:54 pm 15:54 undefined 85 29.4 49 9.4 29 29 undefined N/A 30.03 1017 N/A 0 0
4:54 pm 16:54 undefined 84 28.9 48 8.9 29 29 undefined N/A 30.03 1017 N/A 0 0
5:54 pm 17:54 undefined 83 28.3 48 8.9 30 30 undefined N/A 30.03 1017 N/A 0 0
6:54 pm 18:54 undefined 83 28.3 49 9.4 31 31 undefined N/A 30.03 1017 N/A 0 0
7:54 pm 19:54 undefined 82 27.8 49 9.4 32 32 undefined N/A 30.03 1017 N/A 0 0
8:54 pm 20:54 undefined 81 27.2 49 9.4 33 33 undefined N/A 30.03 1017 N/A 0 0
9:54 pm 21:54 undefined 80 26.7 51 10.6 37 37 undefined N/A 30.03 1017 N/A 0 0
10:54 pm 22:54 undefined 79 26.1 54 12.2 42 42 undefined N/A 30.06 1018 N/A 0 0
11:54 pm 23:54 undefined 79 26.1 59 15 50 50 undefined N/A 30.06 1018 N/A 0 0

Powered by AerisWeather